This is the latest recevied weather packets stored in our database for station/object CE3MXM-13. If no packets are shown the sender has not sent any weather packets the latest 10 day(s).
| Time | Temp. | Humidity | Pressure | Rain* | Wind** | Luminosity | Snow |
|---|---|---|---|---|---|---|---|
| 1777487562 | 27.22° C | 43% | 1009.6 hPa | - | - | - | - |
| 1777487262 | 26.67° C | 45% | 1009.6 hPa | - | - | - | - |
| 1777486961 | 26.67° C | 44% | 1009.7 hPa | - | - | - | - |
| 1777486661 | 26.11° C | 46% | 1009.8 hPa | - | - | - | - |
| 1777486361 | 25.56° C | 45% | 1010 hPa | - | - | - | - |
| 1777486061 | 26.11° C | 44% | 1009.9 hPa | - | - | - | - |
| 1777485761 | 26.11° C | 47% | 1009.9 hPa | - | - | - | - |
| 1777485461 | 26.67° C | 46% | 1009.9 hPa | - | - | - | - |
| 1777485161 | 25.56° C | 46% | 1009.9 hPa | - | - | - | - |
| 1777484861 | 25.56° C | 47% | 1010.1 hPa | - | - | - | - |
| 1777484561 | 25.56° C | 47% | 1010.2 hPa | - | - | - | - |
| 1777484260 | 26.11° C | 45% | 1010.3 hPa | - | - | - | - |
| 1777483960 | 26.11° C | 44% | 1010.4 hPa | - | - | - | - |
| 1777483660 | 25.56° C | 46% | 1010.4 hPa | - | - | - | - |
| 1777483360 | 25.56° C | 43% | 1010.4 hPa | - | - | - | - |
| 1777483060 | 25.56° C | 44% | 1010.5 hPa | - | - | - | - |
| 1777482760 | 25° C | 46% | 1010.6 hPa | - | - | - | - |
| 1777482460 | 25° C | 45% | 1010.6 hPa | - | - | - | - |
| 1777482160 | 25° C | 46% | 1010.7 hPa | - | - | - | - |
| 1777481860 | 25° C | 45% | 1010.7 hPa | - | - | - | - |
| 1777481559 | 25° C | 46% | 1010.6 hPa | - | - | - | - |
| 1777481259 | 24.44° C | 46% | 1011 hPa | - | - | - | - |
| 1777480959 | 24.44° C | 49% | 1010.8 hPa | - | - | - | - |
| 1777480659 | 24.44° C | 47% | 1011 hPa | - | - | - | - |
| 1777480359 | 25° C | 48% | 1010.8 hPa | - | - | - | - |
* Rain since midnight (hover to see other rain measurements)
** Current wind speed in m/s (hover to see current wind gust speed)